Desert Rock Airport
KDRA : rendu visible

Aérodrome :











RETROUVEZ-NOUS SUR...

 
LOGIN :

S'inscrire | Disclaimer

   EN    FR    IT 

 









Légende :    VFR   VFR Marginal   IFR   IFR Intensif   IFR Très Intensif
Visi : 
Plafond : 
>= 8 km
>= 3000ft
5 à 8 km
1000 à 3000 ft
1500m à 5 km
500 à 1000 ft
800 à 1500m
200 à 500 ft
< 800m
< 200 ft
Symboles :   Orages  Brouillard  Fortes neiges  Fortes précipitations  Vent > 20 kt






- Altitude de l'aérodrome : 3314 ft


KDRA - Desert Rock

DERNIER METAR :
  • 271253Z AUTO 07003KT 10SM CLR 19/M01 A2996 RMK AO2 SLP098 T01941011

METARs EXPIRÉS :
  • 271153Z AUTO 00000KT 10SM CLR 18/M01 A2994 RMK AO2 SLP090 T01831011 10289 20183 53002
  • 271053Z AUTO 10004KT 10SM CLR 20/M02 A2994 RMK AO2 SLP086 T02001017

Prévision TAF périmée.



MET'MAP, la Météo Aéronautique d'un coup d'oeil ! - Copyright ORBIFLY Décembre 2007 - Disclaimer

ORBIFLY MET'MAP TEAM :

Programmation & Développement : Alexandra Zaïnal
Sur une idée originale de : Baudouin d'Aumeries
Assistance à la programmation : Marc-Olivier Méhu
Soutien technique & logistique : Manuel Goepfert

Contact : metmap@orbifly.com




SOURCES & CREDITS :

   NOAA       Earth
Advisory